Wind_Speed
45 40 41 38 35 32 33 26 26 17 13 17 18 20 18 12 15 9 9 9 6 4 7 6 3 0 4 6 6 7 8 10 8 8 11 11 11 12 14 15 19 19 19 22
49 45 44 41 39 36 33 25 27 25 18 21 23 23 17 13 15 11 13 11 7 5 6 7 6 4 0 5 6 7 7 9 8 7 9 11 13 14 13 14 15 19 20 21
52 47 43 44 42 37 34 26 27 21 13 27 28 25 19 16 13 13 15 13 10 7 6 8 7 6 4 3 5 5 7 9 9 8 8 11 12 13 14 15 17 18 20 21
51 45 46 37 40 37 32 30 28 22 19 23 28 25 22 18 14 14 13 14 13 10 8 7 8 8 6 5 5 5 7 9 11 10 10 11 13 15 16 17 17 16 16 15
52 52 48 45 42 38 36 30 28 22 15 14 23 26 25 17 15 17 16 16 15 16 11 7 8 10 9 7 7 7 7 8 10 11 11 11 12 14 15 14 13 12 11 10
54 54 51 41 45 40 35 35 32 20 15 15 23 26 14 20 18 15 15 17 18 15 13 9 9 11 13 11 9 10 10 10 10 11 11 11 10 9 9 9 8 8 7 6
58 56 53 48 47 41 40 32 23 17 18 17 19 12 20 24 20 16 16 21 20 19 17 13 11 11 15 15 13 11 11 11 10 10 10 10 10 8 6 5 4 3 3 2
61 58 57 56 53 47 38 37 23 24 24 19 15 19 25 25 24 22 19 17 15 19 19 16 14 13 14 20 17 15 13 12 12 12 10 10 9 7 6 6 6 5 4 3
66 63 59 57 54 51 47 37 28 29 27 20 22 21 23 26 28 25 24 23 23 19 24 21 17 14 16 20 21 20 18 16 15 14 13 11 9 8 7 6 6 6 6 6
70 67 65 61 57 54 49 39 32 33 30 22 19 17 16 22 24 26 24 28 26 23 25 24 17 17 21 19 20 25 23 22 19 17 16 14 11 10 10 11 11 11 9 9
72 71 68 67 62 54 36 40 40 28 29 28 26 21 21 23 22 29 26 29 30 25 25 28 25 20 21 22 21 21 26 28 25 23 21 20 18 17 16 16 17 17 16 14
74 71 69 67 64 58 55 48 32 27 36 28 21 14 21 26 22 24 28 29 31 27 30 31 28 27 23 25 26 24 23 25 29 30 28 28 27 26 25 23 23 23 23 22
76 78 74 70 66 61 54 36 33 38 33 31 30 25 20 18 25 25 29 27 28 29 31 31 34 31 30 30 29 28 27 26 27 26 27 30 31 31 30 29 28 27 27 26
74 77 73 71 66 63 58 55 51 41 41 39 34 25 22 22 20 28 28 32 31 31 34 34 35 35 29 33 33 30 27 29 30 28 28 27 29 31 32 32 31 30 30 29
78 79 75 70 65 63 59 56 52 52 50 41 36 30 24 21 22 26 30 30 33 38 38 40 40 39 36 35 37 34 29 28 26 26 24 26 30 32 32 31 32 34 30 31
64 77 75 71 65 59 57 55 49 40 40 35 36 36 32 27 27 29 32 28 28 36 43 46 48 47 46 41 42 38 35 32 33 33 35 34 33 33 33 33 32 34 31 30
74 66 68 71 62 60 57 51 46 50 47 40 45 41 33 33 32 30 34 34 30 34 40 44 48 51 53 48 46 42 39 38 42 41 45 42 31 33 33 35 36 36 33 30
70 68 58 62 67 62 55 49 47 44 40 33 34 35 32 31 34 31 31 35 35 35 32 37 42 41 43 44 47 44 43 42 42 41 39 35 36 37 39 34 37 36 37 37
59 66 59 52 53 55 50 43 36 34 34 31 32 34 32 31 32 33 35 36 37 40 38 35 35 34 36 45 47 45 44 43 42 46 42 42 42 37 41 41 40 37 38 38
48 53 56 47 43 43 43 42 44 41 37 35 35 38 36 34 33 34 34 28 30 33 38 38 34 32 34 38 43 48 45 49 47 45 48 40 42 37 35 37 39 38 38 37
43 43 43 37 39 40 42 44 43 43 43 40 43 45 43 36 35 35 35 29 31 33 35 40 43 43 34 32 35 43 44 46 49 50 48 49 44 38 39 41 40 38 38 40
41 45 42 43 46 46 42 46 43 54 55 44 49 53 46 40 38 33 33 34 33 35 35 36 39 41 40 38 42 37 41 47 55 54 50 52 54 45 43 42 44 45 40 42
40 44 41 38 42 47 47 46 46 63 43 43 38 39 39 40 39 38 36 35 39 40 41 40 40 40 42 44 45 39 35 37 44 43 44 46 48 49 48 49 43 38 41 40
29 36 36 42 30 51 48 43 39 34 43 42 40 40 42 44 45 44 42 41 40 41 41 41 41 38 37 41 42 40 38 36 38 46 44 46 53 54 45 39 36 35 38 45
34 35 34 35 24 24 34 32 33 36 34 28 32 37 39 38 41 42 42 40 37 36 37 36 34 34 34 33 33 35 39 41 41 42 40 42 42 43 38 37 39 40 41 41
22 23 22 23 29 29 29 27 33 34 33 33 34 34 37 39 40 37 38 36 34 33 33 35 35 32 33 31 30 31 33 37 42 36 35 41 47 44 41 44 46 46 46 41
13 15 16 16 17 21 26 27 27 27 27 26 26 29 30 34 38 39 36 32 29 29 29 31 32 33 33 36 33 33 30 30 30 32 33 33 30 31 35 37 39 40 36 35
Wind_Direction
224 227 230 232 235 237 241 250 259 258 233 222 229 237 248 256 266 256 227 223 244 261 249 255 243 252 90 90 89 83 94 102 102 95 97 107 103 97 107 113 109 101 99 105
224 225 230 228 232 236 236 236 245 246 223 205 217 231 228 256 268 238 225 224 233 251 257 248 250 256 342 114 102 95 89 95 98 102 113 111 115 118 111 109 112 113 114 111
223 226 227 226 228 234 238 233 242 248 241 211 218 228 231 238 249 236 229 222 235 232 248 242 236 238 245 157 123 106 103 108 106 112 118 123 123 122 120 117 114 111 110 114
222 225 227 221 227 231 236 233 239 245 241 221 226 229 232 234 232 239 222 224 227 240 234 259 239 214 223 209 162 133 119 116 117 114 118 123 120 121 120 118 113 110 109 110
221 226 225 224 223 226 229 230 238 248 241 229 227 226 235 224 234 236 233 229 242 241 244 241 247 222 207 208 204 180 159 142 129 128 129 127 124 122 121 119 115 114 113 114
217 224 223 227 225 222 226 230 230 230 222 225 224 228 241 234 237 212 230 237 237 228 236 231 241 226 212 206 211 197 181 165 151 142 145 146 147 140 130 121 115 112 113 115
221 221 225 226 230 222 223 230 225 224 216 220 227 204 212 229 221 221 229 232 240 231 220 227 223 235 218 207 204 199 187 180 171 166 165 171 177 186 189 179 164 149 142 150
217 220 225 227 227 226 228 229 219 224 220 224 219 207 230 230 224 220 225 231 234 224 211 219 222 223 228 212 207 205 202 194 185 176 172 166 167 173 182 183 176 182 188 194
215 218 222 226 227 232 234 231 219 224 230 235 225 226 232 241 236 235 231 234 234 226 222 221 222 225 222 226 216 210 211 206 202 199 190 187 186 191 202 212 220 230 238 244
211 214 220 226 227 229 233 229 223 225 229 227 209 214 230 243 242 232 241 237 229 230 221 209 206 227 228 226 224 217 216 219 214 215 215 214 219 229 242 247 250 252 256 267
213 213 216 219 225 226 224 235 225 216 219 218 217 227 227 238 239 237 237 225 222 232 224 214 217 223 232 231 224 228 223 225 228 232 236 240 245 251 256 259 260 261 262 268
213 220 219 222 222 225 228 230 226 216 214 217 212 221 231 235 238 232 229 227 230 239 228 218 221 223 227 230 230 226 227 229 234 237 242 246 249 251 256 257 256 257 259 262
214 213 216 220 223 222 223 216 210 220 217 214 220 217 217 237 238 241 233 227 234 240 222 217 223 232 237 236 232 230 232 233 236 241 246 249 251 252 253 254 255 257 261 266
216 217 217 219 223 227 228 229 230 234 226 225 228 224 233 234 235 233 230 227 228 227 219 220 229 232 236 235 235 237 238 238 238 240 245 250 254 255 255 257 257 257 260 265
213 216 217 219 223 228 233 234 232 233 238 233 228 226 242 239 242 240 231 225 220 222 229 230 234 239 246 242 235 234 239 234 245 247 250 252 252 254 256 257 258 259 260 264
214 218 216 217 220 225 231 235 236 234 240 230 236 237 240 238 237 240 231 228 231 231 226 229 233 240 243 244 239 236 235 244 245 250 250 249 249 249 253 257 255 258 259 266
219 216 219 218 218 222 226 229 222 220 230 241 252 252 249 244 235 235 233 234 237 239 232 230 232 235 239 243 240 241 242 241 251 252 250 250 245 252 254 257 260 260 265 265
218 217 215 220 218 219 224 227 231 235 240 232 241 250 252 250 236 236 237 239 240 238 233 234 236 238 241 241 239 241 241 246 249 247 251 243 246 248 264 260 261 263 267 265
210 215 215 219 221 224 228 229 232 213 213 218 232 244 248 240 237 239 238 239 237 235 235 236 235 239 244 244 242 238 242 248 246 245 244 248 247 253 259 258 262 264 266 268
198 204 214 218 219 219 222 225 224 214 223 225 232 233 229 221 220 222 227 231 237 235 227 231 233 236 246 248 241 238 242 251 251 252 244 252 249 257 256 255 260 261 265 271
191 195 193 190 206 209 216 223 217 215 220 225 225 229 221 220 226 224 223 227 230 235 233 236 239 241 244 246 249 247 248 248 249 252 252 257 249 254 253 254 259 265 269 271
190 196 197 204 208 210 209 208 211 212 216 217 223 224 220 223 227 234 239 236 233 233 239 246 245 242 230 242 248 259 248 248 252 252 256 245 249 250 249 253 256 261 267 272
197 187 197 200 211 219 219 209 211 215 208 214 219 218 225 226 228 233 238 242 237 239 244 250 251 243 237 241 250 256 255 247 238 240 245 244 246 249 249 250 258 262 272 280
157 184 193 188 223 218 215 184 181 187 196 205 214 225 233 234 234 233 235 242 250 251 249 250 246 253 249 245 246 250 253 252 247 241 239 241 246 253 266 269 272 272 274 276
145 150 157 163 191 195 188 191 197 201 204 212 221 228 233 234 233 235 239 242 241 241 245 249 246 243 248 249 246 245 249 248 252 251 249 251 256 260 266 272 279 279 279 280
148 156 162 170 177 182 190 200 200 203 213 218 223 227 232 232 236 236 234 238 237 238 239 240 244 247 251 252 250 253 252 247 246 252 254 256 260 257 261 267 270 271 270 267
145 155 164 167 172 183 188 194 201 207 211 213 218 225 231 236 240 243 242 240 238 237 240 239 241 242 242 245 246 249 250 248 247 248 255 251 254 262 261 263 265 261 263 257
Height
5716 5721 5725 5730 5734 5737 5739 5745 5746 5752 5753 5755 5756 5757 5756 5756 5757 5758 5759 5760 5760 5761 5762 5763 5763 5762 5762 5762 5762 5762 5761 5760 5761 5762 5762 5761 5761 5761 5762 5762 5762 5763 5763 5764
5705 5712 5716 5721 5726 5728 5732 5738 5740 5743 5748 5750 5751 5752 5754 5753 5754 5756 5758 5759 5760 5760 5762 5763 5763 5763 5763 5763 5764 5764 5764 5763 5763 5764 5765 5765 5765 5765 5766 5767 5767 5768 5769 5770
5697 5703 5707 5712 5717 5721 5726 5731 5734 5738 5745 5745 5745 5747 5750 5750 5751 5753 5756 5758 5759 5759 5761 5762 5763 5764 5764 5764 5764 5765 5766 5766 5766 5766 5767 5768 5769 5769 5770 5771 5772 5774 5775 5777
5688 5691 5694 5710 5709 5715 5721 5725 5728 5733 5736 5740 5741 5744 5745 5747 5748 5751 5753 5755 5758 5759 5760 5762 5763 5764 5764 5765 5766 5766 5767 5768 5768 5769 5770 5771 5772 5773 5774 5775 5777 5779 5780 5782
5673 5679 5692 5695 5703 5709 5712 5720 5723 5727 5731 5734 5735 5737 5740 5746 5745 5747 5750 5752 5755 5757 5759 5760 5763 5764 5765 5766 5766 5767 5768 5769 5770 5771 5773 5774 5776 5777 5778 5779 5781 5782 5783 5785
5665 5670 5679 5690 5693 5703 5707 5709 5714 5720 5724 5726 5728 5732 5741 5740 5742 5742 5745 5748 5752 5755 5757 5759 5761 5763 5764 5766 5767 5768 5769 5770 5772 5773 5775 5777 5779 5780 5781 5781 5782 5783 5785 5786
5653 5663 5672 5677 5684 5693 5699 5708 5710 5715 5717 5720 5724 5733 5732 5733 5736 5737 5740 5743 5747 5752 5754 5756 5758 5761 5763 5765 5767 5769 5770 5771 5773 5774 5776 5778 5780 5781 5783 5783 5784 5785 5786 5787
5645 5654 5662 5666 5674 5684 5694 5697 5706 5708 5712 5716 5721 5725 5725 5729 5731 5733 5736 5740 5743 5747 5750 5753 5756 5758 5761 5763 5766 5768 5770 5772 5773 5774 5776 5778 5779 5781 5783 5784 5784 5786 5787 5788
5635 5646 5649 5657 5666 5675 5682 5693 5699 5703 5706 5710 5714 5719 5721 5724 5728 5730 5733 5736 5740 5743 5746 5750 5754 5756 5758 5760 5764 5767 5769 5771 5773 5775 5776 5778 5779 5781 5782 5784 5784 5785 5786 5787
5619 5630 5637 5647 5656 5665 5672 5682 5691 5696 5700 5705 5708 5712 5716 5719 5722 5726 5728 5731 5734 5737 5741 5745 5750 5753 5753 5757 5759 5764 5767 5769 5772 5774 5775 5777 5778 5780 5781 5782 5783 5783 5784 5785
5608 5617 5625 5635 5645 5657 5665 5671 5684 5689 5694 5699 5702 5706 5710 5713 5716 5720 5723 5725 5729 5732 5736 5740 5744 5748 5749 5752 5756 5759 5763 5766 5769 5771 5773 5775 5776 5777 5778 5779 5780 5781 5781 5782
5600 5608 5617 5626 5636 5647 5655 5664 5673 5681 5687 5691 5696 5700 5704 5707 5710 5713 5716 5719 5723 5726 5730 5734 5738 5741 5744 5747 5751 5753 5756 5759 5763 5765 5768 5769 5771 5772 5773 5774 5775 5776 5776 5777
5583 5590 5604 5615 5625 5637 5644 5655 5662 5670 5679 5683 5688 5693 5696 5700 5703 5705 5708 5711 5716 5719 5722 5725 5731 5735 5738 5741 5744 5747 5750 5753 5755 5758 5761 5763 5765 5766 5767 5767 5769 5770 5770 5771
5574 5584 5596 5605 5616 5626 5636 5647 5653 5660 5666 5673 5680 5686 5689 5692 5696 5699 5701 5704 5708 5712 5715 5719 5724 5728 5731 5734 5737 5741 5743 5746 5748 5750 5753 5755 5757 5758 5759 5761 5762 5763 5763 5764
5561 5570 5583 5595 5607 5616 5625 5635 5642 5648 5656 5664 5671 5676 5681 5684 5688 5691 5694 5697 5700 5705 5708 5712 5715 5719 5723 5727 5729 5733 5735 5739 5742 5745 5746 5748 5749 5751 5752 5754 5755 5754 5757 5757
5551 5559 5572 5586 5598 5607 5616 5624 5634 5643 5647 5655 5661 5668 5673 5677 5679 5682 5687 5689 5692 5696 5700 5703 5707 5710 5713 5718 5722 5724 5728 5731 5733 5735 5737 5739 5740 5742 5744 5745 5746 5746 5749 5751
5537 5551 5563 5575 5589 5599 5607 5615 5627 5636 5639 5646 5653 5658 5664 5668 5671 5675 5678 5682 5684 5687 5691 5694 5698 5701 5704 5708 5713 5716 5719 5722 5724 5726 5728 5730 5732 5734 5734 5735 5736 5738 5740 5743
5529 5543 5554 5565 5577 5586 5597 5607 5616 5624 5632 5638 5644 5649 5654 5659 5663 5667 5669 5673 5676 5680 5682 5685 5689 5692 5695 5698 5702 5705 5708 5711 5714 5717 5718 5719 5722 5723 5724 5724 5727 5730 5731 5731
5522 5536 5547 5558 5568 5579 5590 5600 5609 5616 5622 5630 5636 5641 5646 5650 5654 5658 5661 5664 5668 5672 5675 5678 5682 5685 5686 5689 5692 5695 5698 5700 5703 5706 5709 5710 5711 5716 5716 5715 5717 5720 5720 5720
5517 5528 5541 5551 5561 5571 5582 5591 5599 5606 5613 5620 5627 5633 5637 5642 5646 5649 5652 5655 5659 5663 5667 5670 5674 5676 5678 5679 5682 5686 5689 5690 5693 5694 5697 5702 5704 5705 5707 5707 5708 5710 5710 5710
5512 5522 5533 5544 5554 5564 5575 5583 5591 5598 5605 5611 5617 5623 5629 5633 5636 5640 5644 5646 5649 5653 5657 5661 5664 5667 5669 5670 5672 5675 5677 5679 5681 5683 5688 5690 5692 5695 5697 5698 5698 5699 5699 5699
5508 5519 5531 5541 5550 5558 5566 5575 5581 5586 5592 5601 5608 5614 5620 5623 5627 5631 5634 5637 5639 5643 5646 5649 5652 5654 5658 5659 5662 5663 5665 5667 5669 5673 5674 5678 5681 5684 5685 5686 5688 5687 5687 5686
5507 5518 5528 5537 5546 5554 5561 5566 5573 5576 5586 5594 5599 5605 5610 5614 5618 5621 5624 5627 5630 5633 5636 5638 5639 5643 5647 5649 5651 5653 5654 5655 5658 5661 5665 5666 5667 5670 5671 5672 5675 5677 5676 5674
5507 5516 5526 5535 5542 5547 5554 5560 5565 5570 5577 5584 5592 5597 5601 5604 5608 5611 5614 5617 5620 5622 5625 5627 5629 5631 5634 5637 5641 5643 5645 5648 5649 5651 5653 5655 5658 5659 5657 5660 5662 5663 5664 5664
5510 5517 5524 5531 5537 5544 5550 5554 5560 5565 5571 5579 5585 5590 5592 5594 5598 5602 5605 5608 5610 5613 5615 5618 5620 5623 5626 5628 5629 5631 5633 5635 5637 5640 5641 5644 5645 5647 5647 5648 5649 5651 5652 5652
5515 5520 5525 5530 5534 5540 5546 5550 5557 5565 5570 5573 5577 5580 5582 5585 5589 5592 5597 5600 5602 5604 5607 5609 5611 5613 5615 5617 5619 5620 5622 5624 5627 5629 5632 5633 5634 5635 5637 5638 5638 5638 5638 5638
5517 5522 5526 5530 5535 5541 5545 5550 5554 5558 5562 5565 5568 5571 5574 5577 5581 5584 5587 5590 5594 5596 5598 5600 5602 5604 5606 5608 5610 5611 5613 5615 5617 5619 5621 5622 5623 5625 5625 5626 5625 5626 5627 5626